FW6528 Weather Reports


time (UTC)temp
C
wind
direction
speed
KPH
gust
KPH
rain 1hr
cm
rain 24hr
cm
rain mn
cm
humidity
%
barometer
mb
20260504151052 21 0 0.0 4.8 0.00 0.00 0.00 52 1018.0
20260504150548 20 241 0.0 4.8 0.00 0.00 0.00 48 1018.0
20260504141048 18 0 0.0 4.8 0.00 0.00 0.00 59 1018.5
20260504140548 18 231 0.0 3.2 0.00 0.00 0.00 60 1018.5
20260504130548 12 0 0.0 0.0 0.00 0.00 0.00 79 1018.4
20260504110547 5 0 0.0 0.0 0.00 0.00 0.00 91 1018.1
20260504100547 6 0 0.0 0.0 0.00 0.00 0.00 91 1017.6
20260504081553 6 0 0.0 0.0 0.00 0.00 0.00 89 1017.5
20260504081047 6 0 0.0 0.0 0.00 0.00 0.00 89 1017.6
20260504080551 6 0 0.0 0.0 0.00 0.00 0.00 89 1017.8
20260504050548 8 0 0.0 0.0 0.00 0.00 0.00 83 1018.5
20260504045547 8 0 0.0 0.0 0.00 0.00 0.00 83 1018.6
20260504045048 8 0 0.0 0.0 0.00 0.00 0.00 82 1018.6
20260504044555 8 0 0.0 0.0 0.00 0.00 0.00 82 1018.7
20260504044047 8 0 0.0 0.0 0.00 0.00 0.00 82 1018.6
20260504043547 8 0 0.0 0.0 0.00 0.00 0.00 82 1018.5
20260504043103 8 0 0.0 0.0 0.00 0.00 0.00 81 1018.4
20260504042548 8 0 0.0 0.0 0.00 0.00 0.00 81 1018.4
20260504042049 8 0 0.0 0.0 0.00 0.00 0.00 81 1018.6
20260504041552 8 0 0.0 0.0 0.00 0.00 0.00 81 1018.8
20260504041048 8 0 0.0 0.0 0.00 0.00 0.00 80 1018.8
20260504040548 8 0 0.0 0.0 0.00 0.00 0.00 80 1018.7
20260504040126 9 0 0.0 0.0 0.00 0.00 0.00 80 1018.7
20260504035547 9 0 0.0 0.0 0.00 0.00 0.00 79 1018.7
20260504035047 9 0 0.0 0.0 0.00 0.00 0.00 78 1018.6
20260504034600 9 0 0.0 0.0 0.00 0.00 0.00 78 1018.6
20260504034046 10 0 0.0 0.0 0.00 0.00 0.00 78 1018.7
20260504033548 10 0 0.0 0.0 0.00 0.00 0.00 77 1018.5
20260504033051 10 0 0.0 0.0 0.00 0.00 0.00 78 1018.7
20260504032548 10 0 0.0 0.0 0.00 0.00 0.00 77 1018.8
20260504032048 10 0 0.0 0.0 0.00 0.00 0.00 77 1018.6
20260504031600 10 0 0.0 0.0 0.00 0.00 0.00 76 1018.7
20260504031051 10 0 0.0 0.0 0.00 0.00 0.00 76 1018.6
20260504030545 10 0 0.0 0.0 0.00 0.00 0.00 75 1018.6
20260504030051 10 0 0.0 0.0 0.00 0.00 0.00 75 1018.6
20260504025545 10 0 0.0 0.0 0.00 0.00 0.00 75 1018.5
20260504025045 10 0 0.0 0.0 0.00 0.00 0.00 75 1018.6
20260504024553 10 0 0.0 0.0 0.00 0.00 0.00 75 1018.6
20260504024049 11 0 0.0 0.0 0.00 0.00 0.00 75 1018.6
20260504023548 11 0 0.0 0.0 0.00 0.00 0.00 74 1018.5
20260504023055 11 0 0.0 0.0 0.00 0.00 0.00 73 1018.4
20260504022548 11 0 0.0 0.0 0.00 0.00 0.00 72 1018.4
20260504022048 11 0 0.0 0.0 0.00 0.00 0.00 72 1018.5
20260504021552 11 0 0.0 0.0 0.00 0.00 0.00 72 1018.3
20260504021047 11 0 0.0 0.0 0.00 0.00 0.00 72 1018.5
20260504020547 11 0 0.0 0.0 0.00 0.00 0.00 70 1018.3
20260504020109 11 0 0.0 0.0 0.00 0.00 0.00 70 1018.2
20260504015547 11 0 0.0 0.0 0.00 0.00 0.00 69 1018.0
20260504015045 12 0 0.0 0.0 0.00 0.00 0.00 68 1018.0
20260504014552 12 0 0.0 0.0 0.00 0.00 0.00 69 1018.0
20260504014048 12 0 0.0 0.0 0.00 0.00 0.00 68 1017.9
20260504013547 12 0 0.0 0.0 0.00 0.00 0.00 68 1017.9
20260504013056 12 0 0.0 0.0 0.00 0.00 0.00 67 1018.1
20260504012549 12 0 0.0 0.0 0.00 0.00 0.00 66 1018.0
20260504012045 13 0 0.0 0.0 0.00 0.00 0.00 66 1017.8
20260504011600 13 0 0.0 0.0 0.00 0.00 0.00 65 1017.8
20260504011048 13 0 0.0 0.0 0.00 0.00 0.00 64 1017.7
20260504010548 13 0 0.0 1.6 0.00 0.00 0.00 63 1017.7
20260504010105 13 0 0.0 1.6 0.00 0.00 0.00 62 1017.7
20260504005546 14 0 0.0 1.6 0.00 0.00 0.00 60 1017.7
20260504005049 14 0 0.0 1.6 0.00 0.00 0.00 58 1017.7
20260504004611 15 0 0.0 0.0 0.00 0.00 0.00 58 1017.6
20260504004046 15 0 0.0 0.0 0.00 0.00 0.00 56 1017.5
20260504003546 15 0 0.0 0.0 0.00 0.00 0.00 54 1017.4
20260504003105 16 0 0.0 1.6 0.00 0.00 0.00 53 1017.4
20260504002547 16 0 0.0 1.6 0.00 0.00 0.00 53 1017.4
20260504002047 16 0 0.0 1.6 0.00 0.00 0.00 50 1017.3
20260504001607 17 0 0.0 1.6 0.00 0.00 0.00 49 1017.4
20260504001046 17 0 0.0 3.2 0.00 0.00 0.00 47 1017.4
20260504000544 17 0 0.0 4.8 0.00 0.00 0.00 45 1017.4
20260503235545 18 237 1.6 4.8 0.00 0.00 0.00 43 1017.2
20260503235047 18 252 0.0 4.8 0.00 0.00 0.00 44 1017.4
20260503234628 18 225 0.0 3.2 0.00 0.00 0.00 42 1017.3
20260503234051 18 243 0.0 3.2 0.00 0.00 0.00 43 1017.3
20260503233548 18 0 0.0 8.0 0.00 0.00 0.00 43 1017.4
20260503233100 19 0 0.0 9.7 0.00 0.00 0.00 41 1017.2
20260503232547 19 0 1.6 9.7 0.00 0.00 0.00 40 1017.4
20260503232048 19 220 0.0 4.8 0.00 0.00 0.00 41 1017.3
20260503231555 19 0 0.0 4.8 0.00 0.00 0.00 40 1017.2
20260503231047 19 250 0.0 6.4 0.00 0.00 0.00 40 1017.3
20260503230550 20 46 0.0 6.4 0.00 0.00 0.00 39 1017.3
20260503230051 19 235 0.0 6.4 0.00 0.00 0.00 40 1017.4
20260503225547 20 0 1.6 9.7 0.00 0.00 0.00 41 1017.3
20260503225048 19 0 0.0 9.7 0.00 0.00 0.00 38 1017.3
20260503224550 20 250 1.6 9.7 0.00 0.00 0.00 39 1017.5
20260503224045 19 261 0.0 8.0 0.00 0.00 0.00 40 1017.3
20260503223547 19 201 0.0 8.0 0.00 0.00 0.00 39 1017.3
20260503223103 20 22 1.6 8.0 0.00 0.00 0.00 38 1017.4
20260503222550 20 234 0.0 8.0 0.00 0.00 0.00 39 1017.4
20260503222045 20 277 1.6 8.0 0.00 0.00 0.00 38 1017.4
20260503221556 20 210 0.0 4.8 0.00 0.00 0.00 39 1017.4
20260503221047 20 0 1.6 6.4 0.00 0.00 0.00 37 1017.4
20260503220547 20 248 1.6 6.4 0.00 0.00 0.00 38 1017.4
20260503220054 20 238 0.0 4.8 0.00 0.00 0.00 38 1017.4
20260503215547 20 58 1.6 4.8 0.00 0.00 0.00 36 1017.4
20260503215047 20 248 0.0 4.8 0.00 0.00 0.00 37 1017.4
20260503214550 20 69 0.0 6.4 0.00 0.00 0.00 35 1017.5
20260503214050 20 0 0.0 8.0 0.00 0.00 0.00 37 1017.5
20260503213547 21 26 3.2 12.9 0.00 0.00 0.00 33 1017.5
20260503213049 20 186 1.6 12.9 0.00 0.00 0.00 36 1017.6
20260503212547 22 253 1.6 11.3 0.00 0.00 0.00 35 1017.6
20260503212048 22 316 0.0 8.0 0.00 0.00 0.00 35 1017.6
20260503211548 21 0 1.6 8.0 0.00 0.00 0.00 37 1017.6
20260503211046 21 206 1.6 6.4 0.00 0.00 0.00 38 1017.8
20260503210547 21 246 1.6 8.0 0.00 0.00 0.00 38 1017.8
20260503210047 21 191 1.6 11.3 0.00 0.00 0.00 36 1017.7
20260503205550 20 349 1.6 12.9 0.00 0.00 0.00 37 1017.8
20260503205050 21 0 3.2 12.9 0.00 0.00 0.00 37 1017.8
20260503204550 19 0 0.0 6.4 0.00 0.00 0.00 37 1017.8
20260503204046 20 22 1.6 6.4 0.00 0.00 0.00 37 1017.8
20260503203547 21 341 1.6 8.0 0.00 0.00 0.00 35 1017.9
20260503203056 22 263 1.6 12.9 0.00 0.00 0.00 36 1018.1
20260503202547 21 217 1.6 12.9 0.00 0.00 0.00 37 1018.1
20260503202047 21 253 3.2 12.9 0.00 0.00 0.00 36 1018.2
20260503201553 20 253 1.6 9.7 0.00 0.00 0.00 39 1018.2
20260503201047 20 25 1.6 8.0 0.00 0.00 0.00 40 1018.2
20260503200548 20 13 1.6 8.0 0.00 0.00 0.00 40 1018.4
20260503200055 21 13 0.0 12.9 0.00 0.00 0.00 40 1018.6
20260503195551 20 269 0.0 12.9 0.00 0.00 0.00 39 1018.6
20260503195049 20 240 1.6 12.9 0.00 0.00 0.00 36 1018.7
20260503194559 21 236 1.6 12.9 0.00 0.00 0.00 36 1018.8
20260503194047 21 165 3.2 12.9 0.00 0.00 0.00 36 1019.1
20260503193547 21 13 1.6 12.9 0.00 0.00 0.00 38 1019.0
20260503193046 21 240 1.6 8.0 0.00 0.00 0.00 40 1019.3
20260503192546 20 271 1.6 6.4 0.00 0.00 0.00 42 1019.3
20260503192047 20 352 1.6 6.4 0.00 0.00 0.00 39 1019.5
20260503191553 20 19 1.6 6.4 0.00 0.00 0.00 41 1019.5
20260503191049 20 349 1.6 6.4 0.00 0.00 0.00 38 1019.6
20260503190546 21 292 0.0 8.0 0.00 0.00 0.00 39 1019.6
20260503190050 21 235 1.6 8.0 0.00 0.00 0.00 38 1019.8
20260503185549 21 242 3.2 8.0 0.00 0.00 0.00 38 1019.7
20260503185051 21 234 1.6 4.8 0.00 0.00 0.00 42 1019.7
20260503184550 20 242 0.0 4.8 0.00 0.00 0.00 45 1019.8
20260503184048 20 360 1.6 8.0 0.00 0.00 0.00 43 1019.8
20260503183548 21 225 1.6 12.9 0.00 0.00 0.00 41 1019.8
20260503183057 20 227 1.6 12.9 0.00 0.00 0.00 41 1019.9
20260503182547 20 240 4.8 12.9 0.00 0.00 0.00 40 1020.0
20260503182049 20 257 4.8 11.3 0.00 0.00 0.00 40 1020.1
20260503181553 20 209 3.2 9.7 0.00 0.00 0.00 42 1020.1
20260503181047 20 227 1.6 12.9 0.00 0.00 0.00 43 1020.2
20260503180550 18 5 1.6 12.9 0.00 0.00 0.00 45 1020.0
20260503180100 18 269 1.6 8.0 0.00 0.00 0.00 46 1020.0
20260503175549 18 241 0.0 6.4 0.00 0.00 0.00 44 1020.1
20260503175048 20 238 1.6 11.3 0.00 0.00 0.00 47 1020.1
20260503174554 19 325 3.2 11.3 0.00 0.00 0.00 48 1020.2
20260503174048 18 219 1.6 8.0 0.00 0.00 0.00 45 1020.2
20260503173548 19 351 3.2 8.0 0.00 0.00 0.00 45 1020.4
20260503173052 18 135 0.0 8.0 0.00 0.00 0.00 47 1020.3
20260503172547 19 232 3.2 8.0 0.00 0.00 0.00 46 1020.4
20260503172046 18 18 1.6 8.0 0.00 0.00 0.00 44 1020.5
20260503171552 18 265 1.6 8.0 0.00 0.00 0.00 45 1020.5
20260503171047 18 0 1.6 8.0 0.00 0.00 0.00 47 1020.5
20260503170547 16 64 1.6 6.4 0.00 0.00 0.00 48 1020.6